Regional Weather Roundup
Issued by NWS Charleston, SC

Current Version | Previous Version | Text Only | Print | Product List | Glossary Off
Versions: 1 2 3 4 5 6 7 8 9 10 11 12 13 14 15 16 17 18 19 20 21 22 23 24 25 26 27 28 29 30 31 32 33 34 35 36 37 38 39 40 41 42 43 44 45 46 47 48 49 50

000
ASUS42 KCHS 281827
RWRCHS

REGIONAL WEATHER ROUNDUP
NATIONAL WEATHER SERVICE CHARLESTON SC
200 PM EDT FRI AUG 28 2015

NOTE: "FAIR" INDICATES FEW OR NO CLOUDS BELOW 12,000 FEET WITH NO
SIGNIFICANT WEATHER AND/OR OBSTRUCTIONS TO VISIBILITY.

NOT ALL STATIONS ARE QUALITY CONTROLLED BY THE NATIONAL
WEATHER SERVICE. USE DATA WITH CAUTION...ESPECIALLY
DEWPOINT OBSERVATIONS.

SCZ027-030-031-034>040-042>050-281900-
...SOUTHEAST SOUTH CAROLINA...

CITY           SKY/WX    TMP DP  RH WIND       PRES   REMARKS
N CHARLESTON   PTSUNNY   88  71  57 NE10      30.10F HX  94
6HR MIN TEMP:  71; 6HR MAX TEMP:  88;

WATERFRONT PRK   N/A     82  74  77 NE8       30.09S
MOUNT PLEASANT FAIR      86  73  66 E3        30.10F HX  93
JOHNS ISLAND   MOCLDY    81  77  89 E12       30.10S
PINOPOLIS        N/A     84  72  65 N7        30.05S
MONCKS CORNER  FAIR      86  70  58 N8        30.11F HX  90
SUMMERVILLE    FAIR      86  72  62 N12       30.12F HX  92
BEAUFORT MCAS  CLOUDY    85  72  65 N9        30.11F HX  91
6HR MIN TEMP:  73; 6HR MAX TEMP:  86;

BEAUFORT ARPT  FAIR      84  73  70 NE9       30.10S HX  91
HILTON HEAD IS PTSUNNY   82  72  69 N6        30.11F
WALTERBORO     CLOUDY    88  70  55 NE7       30.12F HX  92
ALLENDALE      MOCLDY    82  72  69 VRB6      30.12S

...SOUTHERN MIDLANDS AND PEE DEE...

CITY           SKY/WX    TMP DP  RH WIND       PRES   REMARKS
GEORGETOWN     NOT AVBL
KINGSTREE      NOT AVBL
ORANGEBURG     PTSUNNY   86  67  52 E10       30.14S
6HR MIN TEMP:  69; 6HR MAX TEMP:  86;

BARNWELL       FAIR      86  70  58 NE10      30.13F HX  90
AIKEN          CLOUDY    81  63  54 NE8       30.18F
MANNING        FAIR      84  64  51 NE7G16    30.13F
COLUMBIA       PTSUNNY   88  63  43 NE7       30.14F
6HR MIN TEMP:  72; 6HR MAX TEMP:  88;

SUMTER         PTSUNNY   86  65  48 E13       30.14F
6HR MIN TEMP:  69; 6HR MAX TEMP:  86;

FLORENCE       PTSUNNY   85  58  39 E15       30.16F
6HR MIN TEMP:  69; 6HR MAX TEMP:  86;

MYRTLE BEACH   PTSUNNY   82  70  65 NE15      30.14F
N MYRTLE BEACH PTSUNNY   85  69  58 NE10      30.13S
6HR MIN TEMP:  70; 6HR MAX TEMP:  86;


$$

GAZ063-065-086>088-099>101-113>116-118-119-134>141-150-281900-
...SOUTHEAST GEORGIA...

CITY           SKY/WX    TMP DP  RH WIND       PRES   REMARKS
SAVANNAH ARPT  CLOUDY    82  72  71 N9        30.11F
6HR MIN TEMP:  73; 6HR MAX TEMP:  82;

HUNTER AAF     CLOUDY    81  76  84 NE7       30.08F
6HR MIN TEMP:  75; 6HR MAX TEMP:  82;

FORT STEWART   CLOUDY    82  73  75 NE5       30.09S
6HR MIN TEMP:  74; 6HR MAX TEMP:  82;

STATESBORO     PTSUNNY   83  74  75 E6        30.12S HX  90
SYLVANIA       CLOUDY    85  76  74 NE5       30.13S HX  93
CLAXTON        NOT AVBL

...CSRA...CENTRAL AND FAR SOUTHEAST GEORGIA...

CITY           SKY/WX    TMP DP  RH WIND       PRES   REMARKS
THOMSON        CLOUDY    83  73  71 N3        30.19F
AUGUSTA-BUSH   PTSUNNY   86  70  58 N9        30.13F HX  90
6HR MIN TEMP:  71; 6HR MAX TEMP:  86;

AUGUSTA-DANIEL PTSUNNY   83  67  58 NE7       30.15F
SWAINSBORO     CLOUDY    84  73  70 NE6       30.13S HX  91
VIDALIA        CLOUDY    82  72  69 E9        30.10F
EASTMAN        RAIN      78  72  81 E15G24    30.11F
HAZLEHURST     FAIR      85  74  70 NE10      30.07F HX  93
ALMA           CLOUDY    76  68  76 SE12G22   30.09R THUNDER
6HR MIN TEMP:  74; 6HR MAX TEMP:  87;

WAYCROSS       CLOUDY    75  72  91 E13G25    30.09R
JESUP          MOCLDY    86  77  74 E9        30.09F HX  97
BAXLEY         PTSUNNY   86  73  66 NE12      30.07F HX  93
BRUNSWICK      CLOUDY    75  66  73 CALM      30.10R THUNDER
SAINT SIMONS   HVY RAIN  72  70  93 NE9       30.08F FOG
6HR MIN TEMP:  73; 6HR MAX TEMP:  88; 6HR PCP:  0.87;


$$

SCZ027-028-034-036>038-045-046-048>050-GAZ119-141-281900-
...LAKE AND SUPPLEMENTAL COASTAL OBSERVATIONS...

STATION/POSITION TIME  TEMP    WIND        PRES    WAVE   SWELL
                       AIR SEA DIR/SP/G            HT/PER HT/PER/DIR
                 (UTC) (F)     (DEG/KT/KT) (MB)    (FT/S) (FT/S/D)
UPR LAKE MARION  NOT AVBL
WINYAH BAY       1700   81      50/ 13     1019.0F
LAKE MURRAY      1700   81      40/  2/  7 1021.0F
ACE BASIN NERRS  1700   85      20/  3     1020.0S
FORT PULASKI     1700   79 85   20/  7/  8 1020.0F
SAPELO ISLAND    1800   78      40/  6     1019.0S

$$

ANZ835-935-AMZ111-154-330-350-352-354-370-450-454-472-281900-
...C-MAN AND BUOY OBSERVATIONS...

STATION/POSITION TIME  TEMP    WIND        PRES    WAVE   SWELL
                       AIR SEA DIR/SP/G            HT/PER HT/PER/DIR
                 (UTC) (F)     (DEG/KT/KT) (MB)    (FT/S) (FT/S/D)
BUOY 41004       1750   82 85   40/ 10/ 14 1018.8F   3/ 5   2/ 5
BUOY 41008       1750   83 85   70/ 10/ 12 1019.0F   2/ 8   2/120/ 8
FOLLY BEACH CMAN 1800   81      60/ 17/ 19 1019.6F
CAPERS NEARSHORE NOT AVBL
FRIPP NEARSHORE  NOT AVBL


STATION/POSITION TIME  TEMP    WIND        PRES    WAVE   SWELL
                       AIR SEA DIR/SP/G            HT/PER HT/PER/DIR
                 (UTC) (F)     (DEG/KT/KT) (MB)    (FT/S) (FT/S/D)
5E ST. MARYS GA  1721      87                N/A     2/ 8   2/ 90/11
FRYING PAN BUOY  1750   81 81   40/ 19/ 23 1019.9S   5/ 5   2/120/11
BUOY 41025       1750   79 82   30/ 19/ 23 1020.1F   4/ 5   2/110/ 8
CAPE LOOKOUT NC  1800   79      40/ 21/ 22 1020.1F
BUOY 41002       1750   81 84  190/ 10/ 12 1018.8F   3/11   3/ 80/11
BUOY 41010       1720   83 87  110/  6/  8 1018.4F
ST AUGUSTINE FL  1800   83 87   90/  7/  7 1018.7F


$$



USA.gov is the U.S. government's official web portal to all federal, state and local government web resources and services.